Regional Weather Roundup
Issued by NWS

Home | Current Version | Previous Version | Text Only | Print | Product List | Glossary Off
Versions: 1 2 3 4 5 6 7 8 9 10 11 12 13 14 15 16 17 18 19 20 21 22 23 24 25 26 27 28 29 30 31 32 33 34 35 36 37 38 39 40 41 42 43 44 45 46 47 48 49 50

000
ASUS43 KMKX 182200
RWRWI

WISCONSIN REGIONAL WEATHER ROUNDUP
NATIONAL WEATHER SERVICE MILWAUKEE/SULLIVAN WI
400 PM CST SAT NOV 18 2017

NOTE: "FAIR" INDICATES FEW OR NO CLOUDS BELOW 12,000 FEET WITH NO
SIGNIFICANT WEATHER AND/OR OBSTRUCTIONS TO VISIBILITY.

WIZ001-002-006>008-014>016-023>028-182300-
NORTHWEST WISCONSIN

CITY           SKY/WX    TMP DP  RH WIND       PRES   REMARKS
SUPERIOR ARPT  CLOUDY    28  16  63 NW14G21   29.88R WCI  16
ASHLAND        CLOUDY    29  19  66 W15       29.82R WCI  18
HAYWARD        CLOUDY    29  18  63 VRB5      29.81R WCI  24
SIREN          MOCLDY    29  18  61 NW14G21   29.85R WCI  19
CUMBERLAND     CLOUDY    30  18  59 NW17G24   29.81R WCI  18
RICE LAKE      CLOUDY    31  20  63 W9        29.83R WCI  23
CHETEK         MOCLDY    32  21  64 NW10      29.80R WCI  24
LADYSMITH      CLOUDY    32  22  67 NW17      29.79R WCI  21
EAU CLAIRE     NOT AVBL
MENOMONIE      PTCLDY    34  22  61 W16G24    29.82R WCI  23
NEW RICHMOND   CLOUDY    32  19  57 NW14G26   29.85R WCI  22
OSCEOLA        PTCLDY    32  19  58 NW14G22   29.89R WCI  22
$$

WIZ003>005-009-010-017-018-182300-
NORTH CENTRAL WISCONSIN

CITY           SKY/WX    TMP DP  RH WIND       PRES   REMARKS
MANITOWISH WTR CLOUDY    28  28 100 NW9       29.71R WCI  19
ARBOR VITAE    MOCLDY    32  29  90 NW9G16    29.70R WCI  24
WOODRUFF       MOCLDY    32  29  90 NW9G16    29.70R WCI  24
RHINELANDER    CLOUDY    30  27  88 N10G20    29.69R WCI  21
EAGLE RIVER    CLOUDY    29  27  92 NW9G17    29.68R WCI  21
LAND O LAKES   CLOUDY    29  27  92 NW9       29.71R WCI  21
PHILLIPS       CLOUDY    29  25  83 NW9       29.73R WCI  21
TOMAHAWK       CLOUDY    30  26  84 NW9       29.71R WCI  22
MEDFORD        CLOUDY    32  26  77 NW17      29.70R WCI  21
MERRILL        CLOUDY    32  27  80 N14G22    29.70R WCI  22
$$

WIZ029-030-035-036-043>047-182300-
CENTRAL WISCONSIN

CITY           SKY/WX    TMP DP  RH WIND       PRES   REMARKS
WAUSAU         CLOUDY    34  26  72 NW15G23   29.68R WCI  24
MOSINEE        CLOUDY    34  28  80 N12G17    29.70R WCI  25
MARSHFIELD     PTCLDY    34  25  69 NW15G23   29.69R WCI  24
STEVENS POINT  CLOUDY    35  28  74 NW10G22   29.69R WCI  27
WAUPACA        CLOUDY    39  30  68 NW12      29.66S WCI  32
WAUTOMA        PTCLDY    37  28  70 NW14      29.69R WCI  28
WISC RAPIDS    MOCLDY    37  27  67 N10G22    29.71R WCI  30
CAMP DOUGLAS   MOCLDY   N/A N/A N/A NW16G23   29.72R
$$

WIZ011>013-019>022-031-037>040-048>050-182300-
NORTHEAST WISCONSIN

CITY           SKY/WX    TMP DP  RH WIND       PRES   REMARKS
ANTIGO         CLOUDY    32  27  82 N18       29.65R WCI  21
SHAWANO        CLOUDY    38  29  68 NW12G21   29.66R WCI  31
OCONTO         CLOUDY    37  29  75 N8        29.63R WCI  30
STURGEON BAY   CLOUDY    37  30  75 N21G28    29.61R WCI  26
GREEN BAY      CLOUDY    38  32  79 NW16G22   29.64R WCI  29
MANITOWOC      CLOUDY    38  30  73 NW20G31   29.61R WCI  28
APPLETON       CLOUDY    37  27  65 N16G25    29.62R WCI  28
CLINTONVILLE   CLOUDY    37  27  65 N15G23    29.66R WCI  28
OSHKOSH        CLOUDY    38  30  73 NW17G23   29.64R WCI  28
$$

WIZ032>034-041-042-053>061-182300-
SOUTHWEST WISCONSIN

CITY           SKY/WX    TMP DP  RH WIND       PRES   REMARKS
LA CROSSE      CLEAR     41  28  60 NW15      29.76R
SPARTA         CLEAR     40  29  66 NW13G21   29.74R WCI  32
VIROQUA        CLEAR     38  32  77 NW18G26   29.72R WCI  29
BOSCOBEL       PTCLDY    44  30  57 VRB6      29.74R
PRAIRIE DU CHI CLEAR     42  28  56 NW18G26   29.75R
PLATTEVILLE    CLEAR     40  34  79 NW16G23   29.71R WCI  32
$$

WIZ056-057-062-063-064-067-068-182300-
SOUTH CENTRAL WISCONSIN

CITY           SKY/WX    TMP DP  RH WIND       PRES   REMARKS
REEDSBURG      CLEAR     38  30  73 NW12      29.70R WCI  30
BARABOO/DELLS  MOCLDY    38  29  70 NW10G17   29.68R WCI  31
LONE ROCK      NOT AVBL
MINERAL POINT  CLEAR     41  34  75 NW13G22   29.69R
MADISON        MOCLDY    39  31  72 N15G25    29.67R WCI  31
MIDDLETON      CLOUDY    39  32  76 NW15G21   29.67R WCI  31
WATERTOWN      CLOUDY    37  35  89 NW10G18   29.63R WCI  30
MONROE         CLOUDY    37  32  81 NW12G21   29.65R WCI  30
JANESVILLE     CLOUDY    39  36  87 NW15G23   29.64R WCI  31
$$

WIZ051-052-058>065-066-070>072-182300-
SOUTHEAST WISCONSIN

CITY           SKY/WX    TMP DP  RH WIND       PRES   REMARKS
MILWAUKEE      CLOUDY    40  33  76 N18G25    29.60R WCI  31
WAUKESHA       CLOUDY    36  30  80 NW17G23   29.61R WCI  25
MILWAUKEE/TIMM CLOUDY    37  30  75 N14G26    29.61R WCI  29
RACINE         CLOUDY    39  33  79 N17G28    29.60R WCI  30
BURLINGTON     CLOUDY    40  38  95 N15       29.60R WCI  31
KENOSHA        CLOUDY    39  32  76 N17G29    29.59R WCI  30
FOND DU LAC    CLOUDY    38  30  73 N14       29.64R WCI  30
SHEBOYGAN      CLOUDY    38  32  79 NW17G29   29.60R WCI  28
WEST BEND      CLOUDY    36  32  87 N14G24    29.60R WCI  27
JUNEAU         CLOUDY    37  31  81 NW13G18   29.64R WCI  28
$$

LSZ147-162-182300-
LAKE SUPERIOR

STATION/POSITION TIME  TEMP    WIND        PRES    WAVE
                       AIR SEA DIR/SP/G            HT/PER
                 (UTC) (F)     (DEG/KT/KT) (MB)    (FT/S)
DEVILS ISLAND    2100   30     310/ 20/ 22 1009.6R
SAXON HARBOR     2130   32     290/  7/ 13 1008.5R
$$

LMZ867-665-643>646-182300-
LAKE MICHIGAN

STATION/POSITION TIME  TEMP    WIND        PRES    WAVE
                       AIR SEA DIR/SP/G            HT/PER
                 (UTC) (F)     (DEG/KT/KT) (MB)    (FT/S)
N MID LAKE BUOY  2050   41 48  340/ 23/ 27 1001.0R   4/ 5
NORTHPORT PIER   2140   40     330/ 25/ 30 1002.0R
SHEBOYGAN LAKESH 2100   39     330/ 18/ 21 1001.6R
PORT WASHINGTON  2140   39     320/  9/ 16 1003.0R
MILWAUKEE LAKESH 2130   40     330/ 15/ 20   N/A
S MID LAKE BUOY  2050   43 49  350/ 31/ 37  998.0R  10/ 8
KENOSHA   LAKESH 2100   40     350/ 20/ 29 1001.0
$$

TC  - TEMPERATURE IN CELSIUS
VSB - VISIBILITY IN STATUTE MILES
WCI - WIND CHILL INDEX
HX  - HEAT INDEX




USA.gov is the U.S. government's official web portal to all federal, state and local government web resources and services.